Location: Saint Peter Port
(49.4500°N, 2.5330°W)
Time: 19:24:10
(UTC+01:00)

Cosmos 2242 Rocket - Visible Passes

Search period start: 26 May 2016 00:00
Search period end: 05 June 2016 00:00
Orbit: 618 x 652 km, 82.5° (Epoch: 25 May)

Date Brightness Start Highest point End Pass type
(mag) Time Alt. Az. Time Alt. Az. Time Alt. Az.
26 May 4.5 02:21:48 10° N 02:26:05 45° ENE 02:29:26 15° SE visible
26 May 5.1 04:00:41 10° NW 04:03:58 21° W 04:06:54 11° SW visible
27 May 6.2 01:08:00 10° NE 01:09:43 12° ENE 01:11:24 10° E visible
27 May 3.5 02:44:13 10° N 02:48:40 89° E 02:51:31 22° S visible
27 May 5.7 04:24:59 10° WNW 04:26:07 11° W 04:27:14 10° W visible
28 May 5.7 01:29:14 10° NNE 01:32:39 21° ENE 01:36:01 10° ESE visible
28 May 4.0 03:06:52 10° NNW 03:11:07 46° W 03:13:38 22° SSW visible
29 May 4.7 01:51:15 10° N 01:55:24 38° ENE 01:58:17 18° SE visible
29 May 4.9 03:29:51 10° NW 03:33:25 24° W 03:35:46 16° SW visible
30 May 6.4 00:38:32 10° NE 00:38:57 10° ENE 00:39:22 10° ENE visible
30 May 3.6 02:13:36 10° N 02:18:02 75° E 02:20:26 26° SSE visible
30 May 5.6 03:53:35 10° NW 03:55:36 13° W 03:57:36 10° WSW visible
31 May 5.8 00:58:49 10° NNE 01:01:55 18° ENE 01:04:59 10° ESE visible
31 May 3.8 02:36:11 10° NNW 02:40:31 55° W 02:42:37 28° SSW visible
01 Jun 4.9 01:20:43 10° N 01:24:43 32° ENE 01:27:20 18° SE visible
01 Jun 4.7 02:59:04 10° NNW 03:02:52 28° W 03:04:48 20° SW visible
02 Jun 3.8 01:42:59 10° N 01:47:23 63° ENE 01:49:33 28° SSE visible
02 Jun 5.5 03:22:30 10° NW 03:25:04 15° W 03:27:01 12° WSW visible
03 Jun 5.9 00:28:28 10° NNE 00:31:11 16° ENE 00:33:53 10° ESE visible
03 Jun 3.6 02:05:31 10° NNW 02:09:54 66° W 02:11:46 33° SSW visible
04 Jun 5.1 00:50:12 10° N 00:54:02 28° ENE 00:56:31 17° ESE visible
04 Jun 4.5 02:28:18 10° NNW 02:32:17 33° W 02:34:00 24° SW visible
